Zurück zum Katalog

ARIANE 44L DEB

LostHEO
NORAD 32998·DEBRIS·🇫🇷 France

Gestartet Oct 29, 1991 von Guiana Space Centre

Loading…

Nächste Überflüge (nächste 24 Stunden)

TLE

VeraltetSource: Space-Track

Epoche: May 30, 2026, 06:26 UTC

1 32998U 91075P   26150.26842109 -.00000179  00000-0 -13569-2 0  9994
2 32998   5.5496  97.9865 6630924 213.3754 329.6069  2.88452142245126

Verfolge ARIANE 44L DEB in Echtzeit mit AllMySat

Download on the App Store